FW3072 Weather Reports


Display with metric or nautical units.
time (UTC)temp
F
wind
direction
speed
MPH
gust
MPH
rain 1hr
in
rain 24hr
in
rain mn
in
humidity
%
barometer
mb
20260903081205 69 360 0.0 2.0 0.00 0.44 0.00 95 1011.7
20260903080203 69 359 1.0 3.0 0.00 0.44 0.00 95 1011.7
20260903075204 69 360 0.0 3.0 0.00 0.44 0.00 95 1011.7
20260903074245 69 360 0.0 2.0 0.00 0.44 0.00 95 1011.6
20260903073224 69 359 0.0 3.0 0.00 0.44 0.00 95 1011.6
20260903072204 69 359 0.0 2.0 0.00 0.44 0.00 95 1011.6
20260903071204 70 359 0.0 2.0 0.00 0.44 0.00 95 1011.5
20260903070203 70 353 1.0 5.0 0.00 0.44 0.00 95 1011.6
20260903065204 70 359 1.0 8.0 0.00 0.44 0.00 95 1012.0
20260903064203 70 360 0.0 4.0 0.00 0.44 0.00 95 1012.0
20260903063204 70 359 1.0 4.0 0.00 0.44 0.00 95 1012.0
20260903062205 70 359 2.0 5.0 0.00 0.44 0.00 95 1012.1
20260903061203 70 359 0.0 4.0 0.00 0.44 0.00 95 1012.1
20260903060205 70 359 1.0 5.0 0.00 0.44 0.00 95 1012.0
20260903055203 69 359 1.0 4.0 0.00 0.44 0.00 95 1011.7
20260903054204 70 281 1.0 3.0 0.00 0.44 0.00 95 1011.7
20260903053203 70 350 1.0 6.0 0.00 0.44 0.00 95 1011.9
20260903051203 70 359 2.0 6.0 0.00 0.44 0.00 95 1011.7
20260903050204 70 359 2.0 6.0 0.00 0.44 0.00 95 1011.9
20260903045203 69 359 1.0 3.0 0.00 0.44 0.00 95 1011.9
20260903044203 69 359 0.0 3.0 0.00 0.44 0.00 95 1011.8
20260903042203 69 359 1.0 3.0 0.00 0.44 0.00 95 1011.4
20260903041204 69 359 0.0 5.0 0.00 0.44 0.00 95 1011.5
20260903040203 69 2 1.0 3.0 0.00 0.44 0.00 95 1011.3
20260903035205 69 359 0.0 1.0 0.00 0.45 0.45 95 1011.1
20260903034203 69 359 0.0 1.0 0.00 0.45 0.45 95 1011.1
20260903033205 69 359 0.0 2.0 0.00 0.45 0.45 95 1011.4
20260903032203 69 360 0.0 0.0 0.00 0.45 0.45 95 1011.3
20260903031204 69 360 0.0 2.0 0.00 0.45 0.45 95 1011.7
20260903030224 69 360 0.0 0.0 0.00 0.45 0.45 95 1012.2
20260903025203 69 360 0.0 1.0 0.00 0.45 0.45 95 1012.3
20260903024204 70 360 0.0 2.0 0.00 0.45 0.45 95 1012.0
20260903023204 70 359 0.0 2.0 0.00 0.45 0.45 95 1012.5
20260903022204 70 360 0.0 1.0 0.00 0.45 0.45 94 1012.8
20260903021203 70 359 0.0 2.0 0.00 0.45 0.45 94 1012.8
20260903020204 70 359 0.0 3.0 0.00 0.45 0.45 94 1012.6
20260903015225 70 359 1.0 3.0 0.10 0.45 0.45 94 1012.7
20260903014204 70 359 1.0 3.0 0.10 0.45 0.45 94 1012.6
20260903013203 70 360 0.0 2.0 0.09 0.44 0.44 94 1013.3
20260903012204 70 359 1.0 5.0 0.00 0.35 0.35 94 1013.0
20260903011203 70 360 0.0 2.0 0.00 0.35 0.35 94 1011.9
20260903010228 70 360 0.0 0.0 0.00 0.35 0.35 94 1012.2
20260903005204 70 360 0.0 2.0 0.03 0.34 0.34 94 1012.1
20260903004204 70 360 0.0 3.0 0.03 0.34 0.34 93 1011.1
20260903003207 70 359 1.0 3.0 0.03 0.34 0.34 93 1010.6
20260903002204 70 360 0.0 4.0 0.03 0.34 0.34 93 1011.2
20260903001225 70 359 1.0 5.0 0.01 0.32 0.32 93 1011.0
20260903000204 70 359 4.0 12.0 0.00 0.31 0.31 92 1010.9
20260902235204 71 0 5.0 14.0 0.23 0.29 0.29 92 1010.8
20260902234203 72 359 4.0 13.0 0.20 0.26 0.26 91 1011.4
20260902233204 73 359 5.0 16.0 0.17 0.23 0.23 91 1012.5
20260902232203 73 359 8.0 20.0 0.16 0.22 0.22 89 1012.7
20260902225202 80 359 4.0 11.0 0.00 0.00 0.00 87 1011.5
20260902224203 80 359 4.0 15.0 0.00 0.00 0.00 87 1010.5
20260902223202 80 358 4.0 10.0 0.00 0.00 0.00 87 1010.8
20260902222202 80 359 1.0 6.0 0.00 0.00 0.00 86 1010.7
20260902221202 81 359 1.0 9.0 0.00 0.00 0.00 86 1010.7
20260902220202 81 359 2.0 9.0 0.00 0.00 0.00 85 1010.6
20260902215202 82 359 0.0 2.0 0.00 0.00 0.00 85 1010.2
20260902214202 82 359 0.0 2.0 0.00 0.00 0.00 85 1009.8
20260902213203 82 360 0.0 2.0 0.00 0.00 0.00 86 1009.8
20260902212202 82 359 1.0 4.0 0.00 0.00 0.00 86 1010.3
20260902211203 82 359 2.0 3.0 0.00 0.00 0.00 87 1010.9
20260902210203 81 360 0.0 1.0 0.00 0.00 0.00 87 1011.0
20260902205202 81 356 1.0 5.0 0.00 0.00 0.00 87 1011.2
20260902204202 81 355 1.0 8.0 0.00 0.00 0.00 86 1011.4
20260902203203 81 359 0.0 6.0 0.00 0.00 0.00 86 1011.8
20260902202202 81 359 4.0 11.0 0.00 0.00 0.00 85 1012.1
20260902201203 81 359 2.0 9.0 0.00 0.00 0.00 84 1012.2
20260902200223 82 359 2.0 8.0 0.00 0.00 0.00 82 1012.4
20260902195204 83 359 2.0 13.0 0.00 0.00 0.00 81 1012.6
20260902194223 83 359 2.0 9.0 0.00 0.00 0.00 81 1012.9
20260902193223 83 359 1.0 8.0 0.00 0.00 0.00 80 1012.8
20260902192202 83 359 3.0 11.0 0.00 0.00 0.00 81 1012.9
20260902191224 83 359 5.0 14.0 0.00 0.00 0.00 81 1012.7
20260902190204 82 358 3.0 11.0 0.00 0.00 0.00 82 1012.9
20260902185203 82 357 2.0 12.0 0.00 0.00 0.00 80 1013.0
20260902184203 83 355 3.0 12.0 0.00 0.00 0.00 79 1012.8
20260902183203 82 359 7.0 13.0 0.00 0.00 0.00 80 1013.0
20260902182203 82 349 3.0 9.0 0.00 0.00 0.00 82 1013.0
20260902181202 81 359 2.0 6.0 0.00 0.00 0.00 85 1012.9
20260902180203 80 359 1.0 9.0 0.00 0.00 0.00 86 1012.8
20260902175203 79 359 1.0 9.0 0.00 0.00 0.00 89 1012.9
20260902174202 78 359 0.0 3.0 0.00 0.00 0.00 89 1013.1
20260902173204 77 359 1.0 5.0 0.00 0.00 0.00 89 1013.4
20260902172203 76 359 0.0 8.0 0.00 0.00 0.00 89 1013.5
20260902171202 76 359 1.0 3.0 0.00 0.00 0.00 87 1013.6
20260902170208 77 360 0.0 5.0 0.00 0.00 0.00 86 1014.0
20260902165202 78 359 0.0 11.0 0.00 0.00 0.00 85 1014.7
20260902164224 79 359 6.0 14.0 0.00 0.00 0.00 85 1015.0
20260902163204 79 359 2.0 6.0 0.00 0.00 0.00 85 1014.0
20260902162202 79 359 1.0 8.0 0.00 0.00 0.00 85 1013.5
20260902161203 79 359 3.0 8.0 0.00 0.00 0.00 85 1013.5
20260902160223 79 359 3.0 10.0 0.00 0.00 0.00 86 1013.6
20260902155206 79 359 2.0 8.0 0.00 0.00 0.00 86 1013.8
20260902154223 78 359 1.0 5.0 0.00 0.00 0.00 88 1013.9
20260902153202 78 359 0.0 9.0 0.00 0.00 0.00 90 1013.9
20260902152224 77 359 2.0 5.0 0.00 0.00 0.00 91 1014.1
20260902151204 76 358 3.0 9.0 0.00 0.00 0.00 93 1014.2
20260902150202 75 359 2.0 13.0 0.00 0.00 0.00 94 1014.3
20260902145206 74 359 3.0 6.0 0.00 0.00 0.00 95 1014.5
20260902144204 73 359 1.0 4.0 0.00 0.00 0.00 95 1014.6
20260902143203 72 360 0.0 0.0 0.00 0.00 0.00 95 1014.8
20260902142225 71 360 0.0 0.0 0.00 0.00 0.00 95 1014.9
20260902141223 71 360 0.0 0.0 0.00 0.00 0.00 95 1015.0
20260902140203 70 360 0.0 0.0 0.00 0.00 0.00 95 1015.0
20260902135202 71 360 0.0 0.0 0.00 0.00 0.00 95 1014.9
20260902134203 71 360 0.0 0.0 0.00 0.00 0.00 95 1014.9
20260902133202 70 360 0.0 0.0 0.00 0.00 0.00 95 1014.8
20260902132203 70 360 0.0 3.0 0.00 0.00 0.00 95 1014.6
20260902131202 70 359 2.0 4.0 0.00 0.00 0.00 95 1014.7
20260902130203 70 359 1.0 2.0 0.00 0.00 0.00 95 1015.0
20260902125202 69 359 1.0 4.0 0.00 0.00 0.00 95 1015.2
20260902124203 69 359 2.0 4.0 0.00 0.00 0.00 95 1015.3
20260902123202 70 359 1.0 6.0 0.00 0.00 0.00 95 1015.4
20260902122203 70 359 1.0 8.0 0.00 0.00 0.00 95 1015.7
20260902121223 71 359 2.0 13.0 0.00 0.00 0.00 95 1014.7
20260902120202 72 359 0.0 3.0 0.00 0.00 0.00 95 1014.6
20260902115204 72 360 0.0 1.0 0.00 0.00 0.00 96 1013.5
20260902114202 72 360 0.0 1.0 0.00 0.00 0.00 96 1012.9
20260902113204 72 360 0.0 1.0 0.00 0.00 0.00 95 1013.1
20260902112202 72 345 0.0 1.0 0.00 0.00 0.00 95 1012.9
20260902111203 71 359 0.0 1.0 0.00 0.00 0.00 95 1012.8
20260902110202 71 215 0.0 0.0 0.00 0.00 0.00 95 1012.8
20260902105203 71 359 0.0 1.0 0.00 0.00 0.00 95 1012.3
20260902104202 71 349 0.0 1.0 0.00 0.00 0.00 95 1012.1
20260902103202 71 241 0.0 0.0 0.00 0.00 0.00 95 1012.2
20260902102203 71 241 0.0 1.0 0.00 0.00 0.00 95 1012.6
20260902101203 71 360 0.0 0.0 0.00 0.00 0.00 95 1012.3
20260902100228 71 360 0.0 0.0 0.00 0.00 0.00 95 1012.4
20260902095202 71 360 0.0 0.0 0.00 0.00 0.00 95 1012.1
20260902094203 71 360 0.0 0.0 0.00 0.00 0.00 95 1012.7
20260902093202 71 360 0.0 0.0 0.00 0.00 0.00 95 1012.9
20260902092203 71 360 0.0 0.0 0.00 0.00 0.00 95 1012.9
20260902091202 71 360 0.0 0.0 0.00 0.00 0.00 95 1013.0
20260902090202 71 360 0.0 0.0 0.00 0.00 0.00 95 1012.9
20260902085205 70 360 0.0 0.0 0.00 0.00 0.00 95 1013.3
20260902084224 70 360 0.0 0.0 0.00 0.00 0.00 95 1013.4
20260902083203 70 360 0.0 0.0 0.00 0.00 0.00 95 1013.3
20260902082202 70 360 0.0 0.0 0.00 0.01 0.00 95 1013.3